Simultaneous Nadir Overpasses (SNOs) Predictions

Prediction of SNOs between GOES-15 and NPP Satellite Orbit:

Table of predicted SNOs for the next 14.0 days since TLE Epoch: 11/16/2024
Index Date Time (GOES-15) GOES-15 Lat,Lon NPP Lat,Lon Distance(km) Time Diff (sec)
1 11/16/2024 21:19:54 0.07, 61.59 0.05, 61.58 2.60 80
2 11/19/2024 09:20:23 -0.06, 61.69 -0.26, 60.82 98.40 80
3 11/20/2024 09:04:17 -0.07, 61.70 0.77, 65.36 417.07 80
4 11/21/2024 21:26:04 0.04, 61.68 0.39, 60.09 180.68 80
5 11/22/2024 21:04:37 0.05, 61.70 -0.58, 64.64 333.89 80
6 11/24/2024 09:26:32 -0.03, 61.79 -0.57, 59.34 280.08 80
7 11/25/2024 09:10:26 -0.04, 61.81 0.40, 63.88 235.50 80
8 11/26/2024 21:32:12 0.01, 61.77 0.74, 58.61 360.30 80
9 11/27/2024 21:10:46 0.03, 61.80 -0.25, 63.16 154.15 80
10 11/29/2024 09:32:41 -0.01, 61.91 -0.89, 57.85 462.27 80
